EHI
4 5 5 5 6 6 6 4 3 2 1 0 0 0 0 0 0 0 0 0 0 0 0 0 0 1 2 3 3 3 3 2 1 1 2 2 1 0 1 2 2 1 0
4 4 4 4 4 5 5 4 3 2 1 0 0 0 0 0 0 0 0 0 0 0 0 0 0 0 1 3 3 3 3 2 1 1 2 1 0 0 1 1 1 0 0
3 3 2 2 3 3 3 3 2 2 1 0 0 0 0 0 0 0 0 0 0 0 0 0 0 0 1 2 2 2 2 1 0 1 1 1 0 0 0 0 0 0 0
2 1 1 1 1 1 2 1 1 1 0 0 0 0 0 0 0 0 0 0 0 0 0 0 0 0 0 1 1 1 1 0 0 0 0 0 0 0 0 0 0 0 0
1 0 0 0 0 0 0 0 0 0 0 0 0 0 0 0 0 0 0 0 0 0 0 0 0 0 0 0 0 0 0 0 0 0 0 0 0 0 0 0 0 0 0
0 0 0 0 0 0 0 0 0 0 0 0 0 0 0 0 0 0 0 0 0 0 0 0 0 0 0 0 0 0 0 0 0 0 0 0 0 0 0 0 0 0 0
0 0 0 0 0 0 0 0 0 0 0 0 0 0 0 0 0 0 0 0 0 0 0 0 0 0 0 0 0 0 0 0 0 0 0 0 0 0 0 0 0 0 0
0 0 0 0 0 0 0 0 0 0 0 0 0 0 0 0 0 0 0 0 0 0 0 0 0 0 0 0 0 0 0 0 0 0 0 0 0 0 0 0 0 0 0
0 0 0 0 0 0 0 0 0 0 0 0 0 0 0 0 0 0 0 0 0 0 0 0 0 0 0 0 0 0 0 0 0 0 0 0 0 0 0 0 0 0 0
0 0 0 0 0 0 0 0 0 0 0 0 0 0 0 0 0 0 0 0 0 0 0 0 0 0 0 0 0 0 0 0 0 0 0 0 0 0 0 0 0 0 0
0 0 0 0 0 0 0 0 0 0 0 0 0 0 0 0 0 0 0 0 0 0 0 0 0 0 0 0 0 0 0 0 0 0 0 0 0 0 0 0 0 0 0
0 0 0 0 0 0 0 0 0 0 0 0 0 0 0 0 0 0 0 0 0 0 0 0 0 0 0 0 0 0 0 0 0 0 0 0 0 0 0 0 0 0 0
0 0 0 0 0 0 0 0 0 0 0 0 0 0 0 0 0 0 0 0 0 0 0 0 0 0 0 0 0 0 0 0 0 0 0 0 0 0 0 0 0 0 0
0 0 0 0 0 0 0 0 0 0 0 0 0 0 0 0 0 0 0 0 0 0 0 0 0 0 0 0 0 0 0 0 0 0 0 0 0 0 0 0 0 0 0
0 0 0 0 0 0 0 0 0 0 0 0 0 0 0 0 0 0 0 0 0 0 0 0 0 0 0 0 0 0 0 0 0 0 0 0 0 0 0 0 0 0 0
0 0 0 0 0 0 0 0 0 0 0 0 0 0 0 0 0 0 0 0 0 0 0 0 0 0 0 0 0 0 0 0 0 0 0 0 0 0 0 0 0 0 0
0 0 0 0 0 0 0 0 0 0 0 0 0 0 0 0 0 0 0 0 0 0 0 0 0 0 0 0 0 0 0 0 0 0 0 0 0 0 0 0 0 0 0
0 0 0 0 0 0 0 0 0 0 0 0 0 0 0 0 0 0 0 0 0 0 0 0 0 0 0 0 0 0 0 0 0 0 0 0 0 0 0 0 0 0 0
0 0 0 0 0 0 0 0 0 0 0 0 0 0 0 0 0 0 0 0 0 0 0 0 0 0 0 0 0 0 0 0 0 0 0 0 0 0 0 0 0 0 0
0 0 0 0 0 0 0 0 0 0 0 0 0 0 0 0 0 0 0 0 0 0 0 0 0 0 0 0 0 0 0 0 0 0 0 0 0 0 0 0 0 0 0
0 0 0 0 0 0 0 0 0 0 0 0 0 0 0 0 0 0 0 0 0 0 0 0 0 0 0 0 0 0 0 0 0 0 0 0 0 0 0 0 0 0 0
0 0 0 0 0 0 0 0 0 0 0 0 0 0 0 0 0 0 0 0 0 0 0 0 0 0 0 0 0 0 0 0 0 0 0 0 0 0 0 0 0 0 0
0 0 0 0 0 0 0 0 0 0 0 0 0 0 0 0 0 0 0 0 0 0 0 0 0 0 0 0 0 0 0 0 0 0 0 0 0 0 0 0 0 0 0
0 0 0 0 0 0 0 0 0 0 0 0 0 0 0 0 0 0 0 0 0 0 0 0 0 0 0 0 0 0 0 0 0 0 0 0 0 0 0 0 0 0 0
0 0 0 0 0 0 0 0 0 0 0 0 0 0 0 0 0 0 0 0 0 0 0 0 0 0 0 0 0 0 0 0 0 0 0 0 0 0 0 0 0 0 0
0 0 0 0 0 0 0 0 0 0 0 0 0 0 0 0 0 0 0 0 0 0 0 0 0 0 0 0 0 0 0 0 0 0 0 0 0 0 0 0 0 0 0
Wind_Speed
2 2 2 2 2 2 1 1 2 2 2 2 3 3 3 3 3 3 4 3 4 4 3 3 3 3 2 1 2 2 2 2 2 1 1 1 2 3 1 2 1 3 3
2 2 2 2 3 2 2 2 2 2 2 2 3 3 3 3 3 4 4 4 4 4 4 3 2 2 2 2 1 2 1 2 2 2 2 2 2 2 1 2 2 2 1
2 3 3 3 2 2 2 1 2 2 2 2 3 3 4 4 3 3 3 4 4 4 4 4 3 2 2 2 2 1 1 2 2 2 2 1 2 1 2 2 2 1 1
3 3 3 3 2 2 2 1 1 1 2 2 3 3 3 3 3 3 3 4 4 4 4 4 4 3 2 2 1 1 2 2 2 2 2 2 1 2 2 2 2 2 1
3 3 3 3 2 2 2 2 2 1 2 2 3 3 4 3 4 5 4 4 3 3 3 3 3 3 4 3 2 2 2 2 1 1 2 2 1 1 2 2 2 2 2
3 3 3 3 2 2 2 1 1 2 2 2 3 3 4 4 5 5 6 4 4 3 3 3 1 0 1 0 2 4 4 3 2 1 0 1 1 1 1 2 1 1 1
3 3 3 3 2 2 1 1 1 1 2 2 3 3 4 4 3 4 5 5 4 3 3 3 2 2 2 1 1 3 3 3 4 4 2 1 1 1 2 2 1 1 1
3 3 3 3 2 2 1 1 1 1 1 2 2 3 3 3 3 4 6 5 3 2 3 3 3 3 3 4 3 2 1 1 2 3 3 3 2 1 2 2 2 2 3
3 3 3 3 2 1 1 1 1 1 2 2 2 3 3 2 2 4 7 4 2 2 3 3 3 2 3 5 4 3 2 1 2 1 2 2 3 2 3 3 3 3 2
3 3 2 2 2 1 0 0 1 1 2 2 2 2 3 3 2 3 6 4 3 3 2 1 1 2 3 4 5 3 2 1 1 1 2 3 4 4 4 4 3 3 2
3 3 2 1 2 1 1 1 1 1 2 2 3 2 2 2 1 2 4 4 4 4 3 2 2 1 3 4 6 5 3 3 3 2 2 2 2 2 3 3 2 3 3
4 3 2 2 1 1 1 1 1 1 2 2 2 2 1 1 1 0 2 4 6 5 4 3 2 2 4 5 5 3 3 5 3 2 1 1 0 0 1 1 1 2 3
4 3 3 2 2 1 2 2 2 2 2 2 2 2 1 1 1 3 4 5 5 5 4 4 5 6 6 6 6 5 5 4 2 2 2 1 1 0 1 1 3 3 4
4 3 3 3 3 2 2 2 2 2 2 3 3 3 3 2 2 2 2 2 4 5 4 3 7 8 7 4 3 5 4 2 2 2 2 2 1 2 3 2 2 3 4
4 3 3 3 2 2 2 2 3 2 3 4 4 4 4 4 4 6 6 6 6 6 6 5 4 3 3 2 2 2 2 3 3 3 3 3 3 3 3 3 3 4 4
4 4 3 3 2 3 2 3 3 4 3 5 6 7 5 4 5 6 6 7 7 6 6 5 4 4 3 3 3 2 3 3 3 3 3 3 3 4 4 3 4 5 5
4 3 3 3 3 3 3 3 3 4 8 9 9 9 9 8 8 8 8 8 8 5 5 5 5 4 4 4 4 3 3 2 3 4 4 4 4 4 5 5 5 5 5
5 4 4 3 3 3 3 3 3 4 4 4 7 10 10 10 10 10 9 7 7 7 6 5 5 4 4 4 4 4 3 3 4 4 4 4 5 5 5 5 5 6 6
5 4 4 4 4 4 4 4 4 4 4 4 3 4 8 10 11 11 8 6 6 6 5 5 5 5 5 5 5 4 5 5 5 5 5 5 6 6 6 7 6 6 7
5 4 4 4 4 4 4 4 4 4 4 5 4 4 3 4 5 5 5 5 6 6 6 5 5 6 6 6 6 6 6 5 6 6 6 6 6 7 7 8 8 7 7
4 5 7 6 5 4 4 4 4 5 5 5 5 4 4 6 6 6 6 5 5 5 5 6 6 6 6 6 6 7 7 6 6 7 7 7 7 7 7 8 8 8 8
4 4 4 4 4 4 4 4 5 5 5 7 6 5 5 7 6 6 6 5 6 6 6 6 7 6 6 6 6 7 7 7 7 7 7 8 8 8 8 8 8 7 8
5 5 4 4 4 4 5 6 5 6 6 6 6 6 5 5 6 6 6 6 6 6 6 6 7 7 6 5 6 7 7 7 7 7 7 8 8 8 8 8 9 9 9
5 5 5 5 5 5 5 5 6 6 6 6 6 6 6 6 7 7 7 6 6 6 7 7 7 9 10 8 7 7 6 6 7 7 9 10 10 9 8 8 10 11 10
5 5 5 5 5 5 5 6 6 6 6 6 6 6 7 7 7 7 7 7 8 7 9 9 7 8 10 11 10 8 4 3 5 7 8 9 10 11 10 11 10 11 11
5 5 5 4 4 5 5 6 6 6 6 6 7 6 7 7 7 7 7 7 7 8 9 8 9 10 11 10 9 7 5 5 6 6 8 9 10 10 10 9 12 11 12
Wind_Direction
158 152 138 133 115 103 87 66 53 34 19 359 353 353 353 348 345 343 345 344 335 331 325 319 317 306 281 259 257 263 259 259 246 253 272 229 255 265 253 277 260 242 159
134 131 126 119 114 112 92 66 52 36 16 17 1 5 2 3 360 354 348 349 339 332 333 331 328 317 301 295 282 283 289 275 248 238 251 239 242 232 240 261 260 248 167
131 145 136 128 117 106 90 60 42 35 20 15 16 11 2 355 358 359 351 348 346 344 340 340 338 337 325 339 308 281 258 248 243 230 232 236 233 224 231 231 218 241 229
147 143 132 125 113 107 94 65 41 31 20 14 6 5 0 352 355 356 347 346 346 345 342 339 339 342 348 334 314 294 280 254 225 221 206 214 199 200 224 214 204 199 212
146 131 124 121 116 109 88 71 57 37 21 14 5 3 4 3 9 355 338 341 341 344 343 343 357 3 2 340 330 321 292 271 233 211 199 212 183 206 230 231 213 179 170
152 138 122 115 115 108 98 74 55 35 18 8 6 5 3 17 24 353 327 323 327 333 334 338 348 44 54 318 328 328 327 309 303 286 227 200 211 229 260 248 219 194 189
155 147 138 132 121 104 92 63 40 30 13 2 0 3 6 13 4 339 324 306 314 327 328 325 333 22 317 349 219 236 264 300 309 305 311 307 253 242 266 252 230 267 301
155 151 149 150 138 123 93 54 18 357 348 337 342 349 350 3 359 328 313 288 304 313 314 322 331 340 10 339 299 282 268 254 272 273 306 301 313 298 262 255 253 236 228
159 157 159 159 148 150 129 50 349 326 315 308 328 336 336 347 359 328 312 295 311 317 319 328 329 336 18 331 296 292 290 231 176 212 324 320 333 301 281 255 236 233 233
162 168 167 166 165 163 140 318 314 307 303 301 338 328 322 331 6 336 318 303 331 325 322 311 93 324 336 315 286 286 291 326 330 176 204 215 223 208 215 240 257 260 258
161 162 153 159 174 177 183 231 274 290 324 313 320 314 310 317 319 328 321 310 323 321 330 331 43 114 292 291 285 285 291 298 283 265 232 209 195 196 199 205 243 276 284
167 168 164 172 202 166 185 217 248 270 264 267 284 296 280 236 303 346 273 282 301 305 309 320 10 354 300 286 276 285 274 265 255 260 269 273 267 183 159 196 239 278 283
170 171 174 185 201 212 221 219 233 248 275 293 295 311 327 341 182 204 233 251 262 275 304 329 306 285 279 256 228 236 245 241 242 254 265 279 290 301 258 216 215 223 230
175 179 187 198 204 209 240 245 257 277 296 310 316 323 330 322 325 335 289 249 235 245 273 266 240 247 246 257 238 216 227 248 272 273 274 265 246 227 231 238 243 239 245
185 190 200 207 212 225 232 272 286 306 326 306 313 313 314 318 3 0 324 317 325 338 323 289 278 269 253 238 236 235 233 218 220 243 255 246 241 242 245 235 243 257 258
190 200 208 213 215 231 230 221 213 242 234 242 262 283 297 294 303 305 298 291 290 297 292 280 286 288 295 299 289 258 237 242 250 249 252 254 256 260 262 257 250 251 256
203 212 225 227 224 235 245 253 246 222 224 234 239 242 248 271 278 278 278 280 274 256 255 270 276 282 289 288 284 279 271 257 264 264 261 259 255 256 260 262 259 259 260
211 210 234 238 239 242 249 259 265 273 263 245 223 225 233 242 251 258 263 267 254 225 246 266 275 276 276 276 276 278 275 265 253 255 256 257 260 262 265 266 264 265 269
221 224 229 248 247 244 250 258 264 273 281 284 279 219 217 229 237 244 239 249 272 276 271 271 271 272 274 275 275 273 270 269 269 266 261 260 262 263 263 264 265 259 263
219 228 246 250 247 244 244 254 262 268 272 277 285 290 270 257 261 249 235 253 267 276 282 282 282 282 279 277 273 268 261 256 256 256 257 258 260 263 264 265 268 267 264
220 198 208 237 242 247 251 259 266 269 273 278 282 292 298 287 286 286 282 276 278 282 281 282 280 278 273 269 269 271 271 268 265 266 266 264 263 264 266 266 266 269 272
231 227 223 237 243 243 257 263 268 272 275 278 280 266 229 255 275 280 283 284 282 280 280 279 277 276 278 279 280 276 273 272 272 273 275 274 269 267 267 266 266 269 270
231 237 237 239 246 239 244 254 260 264 269 274 280 284 274 273 278 282 285 285 284 285 281 274 271 272 274 275 275 277 280 281 282 286 282 278 277 274 272 272 272 272 272
230 237 245 246 246 254 258 262 263 268 274 279 282 284 284 282 280 282 283 284 284 281 279 277 273 274 277 277 274 271 273 281 286 283 281 278 277 277 276 273 272 273 273
236 239 247 251 254 260 265 269 273 276 279 280 281 282 284 285 285 285 285 284 285 283 282 280 277 277 278 278 278 278 282 267 268 281 274 268 268 269 270 271 271 273 272
239 242 247 252 256 261 267 271 275 281 283 284 286 288 290 291 292 295 296 296 295 291 287 283 280 281 282 279 279 280 267 251 248 255 270 270 268 266 269 270 273 274 275